Weather History for Chihuahua, Mexico

Change the Weather History Date:

Monday, May 27, 2013

  Actual Average Record
Temperature  
Mean Temperature 82 °F -  
Max Temperature 100 °F 92 °F 100 °F (2011)
Min Temperature 64 °F 61 °F 53 °F (1999)
Cooling Degree Days 17    
Growing Degree Days 32 (Base 50)    
Moisture  
Dew Point 32 °F    
Average Humidity 12    
Maximum Humidity 25    
Minimum Humidity 6    
Precipitation  
Precipitation 0.00 in - - ()
Sea Level Pressure  
Sea Level Pressure 29.72 in    
Wind  
Wind Speed 5 mph ()    
Max Wind Speed 18 mph    
Max Gust Speed -    
Visibility 7.4 miles    
Events      
Averages and records for this station are not official NWS values.
T = Trace of Precipitation, MM = Missing Value Source: Averaged Metar Reports

Daily Weather History Graph

Daily Weather History Graph

Search for Another Location

Airport:

Trip Planner

Search our weather history database for the weather conditions in past years. The results will help you decide how hot, cold, wet, or windy it might be!

Date:

Astronomy

May. 27, 2013 Rise Set
Actual Time 6:07 AM MDT 7:55 PM MDT
Civil Twilight 5:40 AM MDT 8:21 PM MDT
Nautical Twilight 5:09 AM MDT 8:53 PM MDT
Astronomical Twilight 4:35 AM MDT 9:26 PM MDT
Moon 10:42 PM MDT (5/27) 8:44 AM MDT (5/27)
Length of Visible Light 14h 40m
Length of Day
13h 47m
Waning Gibbous, 90% of the Moon is Illuminated
May 27
Waning Gibbous
May 31
Last Quarter
Jun 8
New
Jun 16
First Quarter
Jun 23
Full

Hourly Weather History & Observations

Time (MDT) Temp. Dew Point Humidity Pressure Visibility Wind Dir Wind Speed Gust Speed Precip Events Conditions
2:40 AM 79 °F 29 °F 8% 29.54 in 1 mi WNW 6.7 mph - -  
4:40 AM 80.6 °F 19.4 °F 10% 30.05 in 10.0 mi SE 6.9 mph - N/A   Clear
5:40 AM 65 °F 27 °F 14% 29.61 in 2 mi Calm Calm - -  
5:48 AM 60.8 °F 24.8 °F 25% 29.71 in 10.0 mi South 6.9 mph - N/A   Clear
6:40 AM 60.8 °F 21.2 °F 22% 30.07 in 10.0 mi Calm Calm - N/A   Clear
7:40 AM 71.6 °F 26.6 °F 19% 30.08 in 10.0 mi SSE 5.8 mph - N/A   Clear
8:42 AM 78.8 °F 28.4 °F 16% 29.73 in 10.0 mi Calm Calm - N/A   Clear
8:45 AM 81 °F 35 °F 10% 29.67 in 6 mi East 4.5 mph - -  
9:44 AM 82.4 °F 26.6 °F 13% 30.06 in 10.0 mi NNW 5.8 mph - N/A   Clear
10:42 AM 84.2 °F 30.2 °F 14% 30.04 in 10.0 mi NW 5.8 mph - N/A   Clear
11:44 AM 89.6 °F 32.0 °F 13% 29.69 in 10.0 mi Calm Calm - N/A   Clear
11:45 AM 90 °F 37 °F 8% 29.61 in 6 mi East 6.7 mph - -  
12:43 PM 91.4 °F 33.8 °F 13% 29.98 in 10.0 mi SSW 10.4 mph - N/A   Clear
1:40 PM 95.0 °F 35.6 °F 12% 29.94 in 10.0 mi North 4.6 mph - N/A   Partly Cloudy
2:40 PM 99 °F 39 °F 6% 29.46 in 2 mi WSW 6.7 mph - -   Scattered Clouds
2:40 PM 98.6 °F 35.6 °F 11% 29.49 in 10.0 mi South 4.6 mph - N/A   Scattered Clouds
3:00 PM 99 °F 39 °F 6%  in 2 mi WSW 6.7 mph - -  
3:40 PM 100.4 °F 35.6 °F 11% 29.87 in 10.0 mi SSW 12.7 mph - N/A   Scattered Clouds
4:40 PM 100.4 °F 37.4 °F 11% 29.83 in 10.0 mi SSW 10.4 mph - N/A   Scattered Clouds
5:40 PM 97 °F 35 °F 6% 29.34 in 2 mi South 4.5 mph - -   Mostly Cloudy
5:40 PM 98.6 °F 35.6 °F 11% 29.47 in 10.0 mi ESE 8.1 mph - N/A   Mostly Cloudy
6:40 PM 95.0 °F 37.4 °F 13% 29.80 in 10.0 mi East 18.4 mph - N/A   Mostly Cloudy
7:40 PM 93.2 °F 35.6 °F 13% 29.81 in 10.0 mi ESE 6.9 mph - N/A   Mostly Cloudy
8:40 PM 91.4 °F 35.6 °F 14% 29.47 in 10.0 mi WNW 16.1 mph - N/A   Mostly Cloudy
8:45 PM 92 °F 33 °F 6% 29.31 in 1 mi NNW 11.2 mph - -   Mostly Cloudy
11:32 PM 88 °F 35 °F 8% 29.34 in 1 mi WNW 8.9 mph - -   Mostly Cloudy